User: anonymous   Login
Location: Unspecified
(0.0000°N, 0.0000°E)
Time: 11:14:41
(UTC+02:00)
Language:

Meteor PRIRODA - Orbit

View from above orbital plane
View from above orbital plane
View from above satellite
View from above satellite

Ground track
Ground track

The orbit data is extracted from the following two-line orbital elements,

1 12585U 81065A   15186.58325160  .00003768  00000-0  18915-3 0  9993
2 12585 097.3501 170.0929 0016309 017.3956 119.8708 15.17786950854073
Epoch (UTC): 05 July 2015 13:59:52
Eccentricity: 0.0016309
inclination: 97.3501°
perigee height: 501 km
apogee height: 524 km
right ascension of ascending node: 170.0929°
argument of perigee: 17.3956°
revolutions per day: 15.17786950
mean anomaly at epoch: 119.8708°
orbit number at epoch: 85407

The dashed part of the orbit path shows where the satellite is in the earth's shadow,  

DLR